Timestamp[UTC];2m Lufttemperatur [degC] (tas);Stations-Luftdruck [Pa] (ps);relative Luftfeuchtigkeit [%] (hurs);spezifische Luftfeuchtigkeit [kg/kg] (huss);Niederschlagsmenge [mm] (pr);Windgeschwindigkeit in 2m [m/s] (sfcWind);Windrichtung [deg];maximale Windgeschwindigkeit [m/s] (wsgsmax);u-Windkomponente [m/s] (uas);v-Windkomponente [m/s] (vas);Sonneneinstrahlung [W/m2];Blitzrate [n];Blitzentfernung [km];Bodenfeuchte in 5cm Tiefe [vol%];Bodenfeuchte in 15cm Tiefe [vol%];Bodenfeuchte in 30cm Tiefe [vol%];Bodenfeuchte in 60cm Tiefe [vol%];Bodentemperatur in 5cm Tiefe [degC];Bodentemperatur in 15cm Tiefe [degC];Bodentemperatur in 30cm Tiefe [degC];Bodentemperatur in 60cm Tiefe [degC];Matrixpotential in 30cm Tiefe [kPa];Bodenfeuchte aus CRNS [vol%] (mrso);Neutronen Anzahl [N/h]
2021-07-01 00:00:00;13,4;100940;92;0,0088;0,17;2,0;262;3,6;-0,27;-1,96;0;0;0;38,6;42,5;38,5;39,6;19,0;19,5;19,6;19,2;-10,2;25,6;2674
2021-07-01 01:00:00;13,5;100945;92;0,0088;0,29;2,0;259;3,8;-0,37;-2,0;0;0;0;38,7;42,5;38,5;39,6;18,9;19,4;19,6;19,1;-10,2;25,5;1510
2021-07-01 02:00:00;13,2;100940;92;0,0087;0,05;2,2;263;3,8;-0,24;-2,23;0;0;0;38,7;42,5;38,5;39,6;18,8;19,3;19,5;19,1;-10,1;25,3;1271
2021-07-01 03:00:00;13,1;100950;92;0,0086;0,38;2,3;270;4,5;0,02;-2,28;3;0;0;38,7;42,5;38,5;39,6;18,6;19,2;19,5;19,1;-10,2;25,4;1283
2021-07-01 04:00:00;13,0;100957;92;0,0085;0,1;2,5;268;4,9;-0,09;-2,54;14;0;0;38,8;42,6;38,5;39,6;18,5;19,1;19,4;19,1;-10,1;25,6;1206
2021-07-01 05:00:00;12,8;100967;92;0,0084;0,0;3,0;260;5,8;-0,52;-2,92;30;0;0;38,9;42,6;38,5;39,6;18,4;19,0;19,3;19,1;-10,1;25,6;1313
2021-07-01 06:00:00;12,8;100960;92;0,0084;0,05;3,2;258;5,8;-0,67;-3,1;61;0;0;38,9;42,6;38,5;39,5;18,3;18,9;19,3;19,0;-10,1;25,6;1312
2021-07-01 07:00:00;13,0;100970;92;0,0085;0,0;3,0;256;5,6;-0,72;-2,89;82;0;0;38,8;42,6;38,6;39,5;18,2;18,8;19,2;19,0;-10,1;25,8;1279
2021-07-01 08:00:00;13,3;100983;92;0,0087;0,63;2,5;250;4,4;-0,81;-2,38;95;0;0;38,8;42,6;38,6;39,5;18,1;18,7;19,2;19,0;-10,1;26,0;1278
2021-07-01 09:00:00;13,4;101008;94;0,0089;1,21;2,6;244;4,5;-1,16;-2,35;128;0;0;39,1;42,7;38,6;39,5;18,0;18,6;19,1;18,9;-10,1;26,4;1321
2021-07-01 10:00:00;13,7;101030;94;0,0091;0,24;2,8;246;4,8;-1,11;-2,56;130;0;0;39,6;42,8;38,6;39,5;18,0;18,6;19,0;18,9;-10,1;26,4;1209
2021-07-01 11:00:00;13,9;101030;94;0,0092;0,53;3,0;251;5,9;-0,93;-2,84;167;0;0;39,7;42,9;38,7;39,5;17,9;18,5;19,0;18,9;-10,1;26,4;1300
2021-07-01 12:00:00;14,0;101053;93;0,0092;0,32;2,9;249;5,3;-1,02;-2,76;144;0;0;39,9;43,0;38,7;39,5;17,9;18,4;18,9;18,8;-10,1;26,8;1323
2021-07-01 13:00:00;14,1;101085;92;0,0091;0,0;3,1;242;5,9;-1,47;-2,74;106;0;0;40,0;43,1;38,8;39,5;17,9;18,4;18,9;18,8;-10,0;26,8;1343
2021-07-01 14:00:00;14,2;101115;91;0,0091;0,0;3,0;242;5,5;-1,39;-2,6;87;0;0;40,0;43,1;38,8;39,5;17,8;18,3;18,8;18,8;-10,0;27,4;1212
2021-07-01 15:00:00;14,4;101120;91;0,0093;0,0;2,9;250;5,2;-0,93;-2,73;102;0;0;39,9;43,1;38,9;39,5;17,8;18,3;18,7;18,7;-10,0;27,4;1265
2021-07-01 16:00:00;14,6;101125;90;0,0092;0,0;2,8;246;4,9;-1,1;-2,59;111;0;0;39,8;43,0;38,9;39,6;17,8;18,2;18,7;18,7;-10,0;27,3;1304
2021-07-01 17:00:00;14,6;101130;89;0,0091;0,0;2,7;246;5,5;-1,05;-2,49;83;0;0;39,7;43,0;38,9;39,6;17,7;18,2;18,6;18,7;-10,0;27,1;1270
2021-07-01 18:00:00;14,5;101148;88;0,009;0,0;2,4;236;4,1;-1,32;-1,99;40;0;0;39,6;43,0;38,9;39,6;17,7;18,1;18,6;18,6;-10,0;26,9;1262
2021-07-01 19:00:00;14,4;101158;88;0,0089;0,0;2,3;230;4,0;-1,5;-1,79;15;0;0;39,5;43,0;38,9;39,6;17,6;18,1;18,5;18,6;-10,0;26,8;1239
2021-07-01 20:00:00;14,2;101210;88;0,0088;0,0;2,0;229;3,5;-1,32;-1,54;0;0;0;39,4;43,0;38,9;39,6;17,6;18,0;18,5;18,6;-10,0;27,0;1229
2021-07-01 21:00:00;14,1;101223;89;0,0089;0,0;1,7;213;2,9;-1,4;-0,93;0;0;0;39,4;43,0;38,9;39,6;17,5;18,0;18,5;18,5;-10,0;27,1;1295
2021-07-01 22:00:00;14,1;101220;90;0,0089;0,0;1,8;211;2,9;-1,54;-0,94;0;0;0;39,3;43,0;38,9;39,6;17,4;17,9;18,4;18,5;-10,0;27,1;1271
2021-07-01 23:00:00;14,1;101225;90;0,009;0,0;1,8;211;3,2;-1,5;-0,91;0;0;0;39,3;42,9;38,9;39,6;17,3;17,9;18,4;18,5;-10,0;26,8;1269
2021-07-02 00:00:00;14,0;101210;91;0,0089;0,0;2,0;208;3,9;-1,7;-0,95;0;0;0;39,2;42,9;38,9;39,6;17,3;17,8;18,3;18,4;-10,0;26,8;1245
2021-07-02 01:00:00;13,7;101187;91;0,0088;0,0;1,7;213;3,0;-1,39;-0,92;0;0;0;39,2;42,9;38,9;39,6;17,2;17,8;18,3;18,4;-10,0;27,0;1292
2021-07-02 02:00:00;13,4;101182;92;0,0087;0,0;1,6;210;2,6;-1,36;-0,79;0;0;0;39,1;42,9;38,9;39,6;17,2;17,7;18,2;18,4;-10,0;27,1;1257
2021-07-02 03:00:00;12,0;101172;93;0,0081;0,0;1,4;192;2,0;-1,34;-0,29;4;0;0;39,1;42,9;38,9;39,6;17,1;17,7;18,2;18,3;-10,0;26,9;1302
2021-07-02 04:00:00;11,9;101192;93;0,008;0,0;1,3;185;2,1;-1,3;-0,14;54;0;0;39,0;42,9;38,9;39,6;17,0;17,6;18,2;18,3;-10,0;26,9;1239
2021-07-02 05:00:00;13,3;101173;95;0,009;0,0;1,7;183;2,8;-1,72;-0,11;192;0;0;39,0;42,9;38,9;39,6;16,9;17,6;18,1;18,3;-10,0;27,0;1328
2021-07-02 06:00:00;14,6;101158;90;0,0091;0,0;2,2;197;3,5;-2,09;-0,69;284;0;0;39,0;42,9;38,9;39,6;16,8;17,5;18,1;18,2;-10,0;27,1;1313
2021-07-02 07:00:00;15,7;101175;84;0,0092;0,0;2,5;206;4,4;-2,23;-1,11;461;0;0;38,9;42,9;38,9;39,6;16,9;17,5;18,0;18,2;-10,0;27,1;1208
2021-07-02 08:00:00;16,7;101197;78;0,0091;0,0;2,6;214;5,1;-2,08;-1,47;450;0;0;38,8;42,8;38,9;39,6;16,9;17,5;18,0;18,2;-10,0;26,9;1211
2021-07-02 09:00:00;17,4;101193;75;0,0092;0,0;2,7;225;5,1;-1,86;-1,91;568;0;0;38,7;42,8;38,8;39,6;17,1;17,5;17,9;18,1;-10,0;26,7;1288
2021-07-02 10:00:00;18,2;101230;74;0,0095;0,0;2,7;228;5,2;-1,84;-1,9;642;0;0;38,6;42,8;38,8;39,6;17,4;17,5;17,9;18,1;-10,0;26,9;1290
2021-07-02 11:00:00;18,0;101270;76;0,0097;0,0;3,5;231;6,1;-2,18;-2,71;538;0;0;38,5;42,7;38,8;39,5;17,9;17,6;17,9;18,1;-10,0;26,7;1289
2021-07-02 12:00:00;17,7;101262;80;0,01;0,0;3,1;237;5,5;-1,68;-2,52;526;0;0;38,4;42,7;38,8;39,5;18,2;17,7;17,8;18,0;-10,0;26,8;1239
2021-07-02 13:00:00;17,9;101257;80;0,0101;0,0;2,6;255;5,0;-0,65;-2,52;456;0;0;38,3;42,6;38,8;39,5;18,4;17,8;17,8;18,0;-10,0;26,5;1295
2021-07-02 14:00:00;18,5;101260;78;0,0103;0,0;2,1;258;3,5;-0,4;-2,03;436;0;0;38,2;42,6;38,7;39,5;18,6;18,0;17,8;18,0;-10,0;26,6;1241
2021-07-02 15:00:00;18,4;101308;77;0,01;0,0;1,8;241;3,9;-0,87;-1,59;166;0;0;38,1;42,6;38,7;39,5;18,8;18,1;17,9;17,9;-10,0;26,5;1248
2021-07-02 16:00:00;19,0;101298;77;0,0103;0,0;1,5;232;2,8;-0,9;-1,14;302;0;0;38,0;42,5;38,7;39,5;18,8;18,2;17,9;17,9;-10,0;26,5;1259
2021-07-02 17:00:00;20,1;101272;71;0,0103;0,0;1,1;251;2,7;-0,38;-1,02;280;0;0;37,9;42,5;38,7;39,5;18,8;18,3;17,9;17,9;-10,0;26,2;1229
2021-07-02 18:00:00;20,4;101243;69;0,0102;0,0;0,5;229;1,1;-0,23;-0,16;146;0;0;37,9;42,5;38,7;39,5;18,9;18,4;17,9;17,9;-10,0;26,4;1258
2021-07-02 19:00:00;19,1;101228;72;0,0098;0,0;0,6;155;0,8;-0,55;0,25;49;0;0;37,8;42,5;38,7;39,4;18,9;18,5;18,0;17,9;-10,0;26,3;1279
2021-07-02 20:00:00;16,6;101265;81;0,0094;0,0;0,6;149;0,9;-0,42;0,34;2;0;0;37,8;42,4;38,6;39,4;18,7;18,5;18,0;17,8;-10,0;26,1;1284
2021-07-02 21:00:00;15,1;101295;86;0,0091;0,0;0,5;124;0,8;-0,28;0,29;0;0;0;37,8;42,4;38,6;39,4;18,5;18,5;18,0;17,8;-10,0;25,7;1227
2021-07-02 22:00:00;14,0;101273;89;0,0088;0,0;0,3;205;0,5;-0,15;-0,09;0;0;0;37,8;42,4;38,6;39,4;18,3;18,4;18,1;17,8;-10,0;25,6;1334
2021-07-02 23:00:00;13,5;101262;90;0,0085;0,0;0,4;150;0,6;-0,28;0,05;0;0;0;37,7;42,4;38,6;39,4;18,0;18,4;18,1;17,8;-10,0;25,7;1270
2021-07-03 00:00:00;13,1;101235;91;0,0084;0,0;0,5;178;0,8;-0,46;0,0;0;0;0;37,7;42,4;38,6;39,4;17,8;18,2;18,1;17,8;-10,0;25,9;1333
2021-07-03 01:00:00;12,8;101232;91;0,0083;0,0;0,3;158;0,4;-0,24;0,07;0;0;0;37,7;42,4;38,6;39,4;17,6;18,1;18,1;17,8;-10,0;25,7;1278
2021-07-03 02:00:00;12,6;101240;92;0,0083;0,0;0,4;167;0,7;-0,4;0,08;0;0;0;37,7;42,4;38,6;39,4;17,4;18,0;18,1;17,8;-10,0;25,8;1285
2021-07-03 03:00:00;13,2;101215;90;0,0084;0,0;0,4;140;1,7;-0,28;0,28;4;0;0;37,6;42,4;38,6;39,4;17,2;17,9;18,1;17,8;-10,0;25,6;1304
2021-07-03 04:00:00;14,4;101162;90;0,0091;0,0;0,9;102;1,6;-0,18;0,83;57;0;0;37,6;42,4;38,6;39,4;17,1;17,7;18,0;17,8;-10,0;25,7;1324
2021-07-03 05:00:00;15,3;101140;94;0,0101;0,0;1,0;154;1,7;-0,87;0,4;145;0;0;37,6;42,4;38,6;39,3;17,0;17,7;18,0;17,8;-10,0;25,6;1283
2021-07-03 06:00:00;17,2;101130;88;0,0106;0,0;1,4;142;2,5;-1,08;0,87;236;0;0;37,6;42,4;38,6;39,3;17,0;17,6;18,0;17,8;-10,0;25,4;1343
2021-07-03 07:00:00;19,3;101105;80;0,0111;0,0;1,7;132;3,2;-1,18;1,24;413;0;0;37,6;42,4;38,6;39,3;17,1;17,6;17,9;17,8;-10,1;25,4;1274
2021-07-03 08:00:00;21,2;101068;71;0,011;0,0;2,0;138;4,1;-1,41;1,26;574;0;0;37,5;42,3;38,6;39,3;17,2;17,6;17,9;17,8;-10,1;25,2;1335
2021-07-03 09:00:00;22,4;101038;64;0,0107;0,0;1,8;154;4,0;-1,57;0,72;698;0;0;37,4;42,3;38,6;39,3;17,5;17,6;17,8;17,8;-10,1;25,1;1336
2021-07-03 10:00:00;23,3;101017;60;0,0106;0,0;1,5;149;3,7;-1,27;0,76;776;0;0;37,3;42,2;38,6;39,3;18,1;17,7;17,8;17,7;-10,1;25,1;1296
2021-07-03 11:00:00;23,8;100985;60;0,0109;0,0;1,3;204;3,4;-1,18;-0,44;746;0;0;37,1;42,2;38,5;39,2;18,9;17,8;17,8;17,7;-10,1;25,5;1232
2021-07-03 12:00:00;23,9;100930;60;0,011;0,0;1,1;257;2,4;-0,34;-0,71;564;0;0;36,9;42,1;38,5;39,2;19,4;18,1;17,8;17,7;-10,1;25,5;1319
2021-07-03 13:00:00;23,3;100925;63;0,0112;0,0;1,2;199;2,5;-1,08;-0,38;266;0;0;36,8;42,1;38,5;39,2;19,8;18,4;17,8;17,7;-10,1;25,6;1282
2021-07-03 14:00:00;22,7;100893;68;0,0117;0,0;1,5;209;2,5;-1,24;-0,69;201;0;0;36,7;42,0;38,5;39,2;19,9;18,6;17,8;17,7;-10,1;25,6;1337
2021-07-03 15:00:00;22,0;100885;70;0,0114;0,0;1,3;166;2,7;-1,13;0,27;133;0;0;36,7;42,0;38,5;39,2;19,8;18,8;17,9;17,7;-10,1;25,7;1252
2021-07-03 16:00:00;20,8;100837;73;0,0111;0,0;1,8;155;3,1;-1,57;0,74;93;0;0;36,6;42,0;38,4;39,2;19,8;18,9;18,0;17,7;-10,1;25,8;1310
2021-07-03 17:00:00;20,0;100822;74;0,0107;0,0;1,3;148;2,6;-1,12;0,7;24;0;0;36,6;42,0;38,4;39,2;19,7;19,0;18,0;17,6;-10,2;26,1;1364
2021-07-03 18:00:00;19,7;100817;74;0,0105;0,0;1,1;125;2,2;-0,65;0,86;25;0;0;36,6;42,0;38,4;39,2;19,5;19,0;18,1;17,6;-10,2;26,1;1290
2021-07-03 19:00:00;19,3;100840;77;0,0107;0,0;0,7;240;1,6;0,14;-0,44;7;0;0;36,5;42,0;38,4;39,2;19,4;19,0;18,1;17,6;-10,2;26,5;1370
2021-07-03 20:00:00;18,2;100880;84;0,0109;1,65;1,6;226;2,8;-1,13;-1,01;0;0;0;36,6;41,9;38,4;39,1;19,3;19,0;18,2;17,6;-10,2;26,7;1342
2021-07-03 21:00:00;17,2;100880;90;0,011;1,88;0,8;210;1,4;-0,63;-0,34;0;0;0;37,1;42,0;38,4;39,1;19,1;19,0;18,2;17,6;-10,2;27,0;1256
2021-07-03 22:00:00;17,1;100823;92;0,0111;0,16;0,3;86;0,8;0,02;0,34;0;0;0;37,9;42,2;38,4;39,1;19,0;18,9;18,3;17,7;-10,2;27,1;1233
2021-07-03 23:00:00;17,1;100775;92;0,0111;0,26;0,7;106;1,5;-0,23;0,68;0;0;0;38,1;42,3;38,4;39,1;18,9;18,9;18,3;17,7;-10,2;27,1;1291
2021-07-04 00:00:00;16,8;100760;93;0,0111;0,0;1,0;187;2,0;-0,66;-0,09;0;0;0;38,2;42,3;38,5;39,1;18,8;18,8;18,3;17,7;-10,2;27,0;1331
2021-07-04 01:00:00;16,8;100745;93;0,0111;0,14;1,0;194;1,6;-0,8;-0,27;0;0;0;38,3;42,4;38,5;39,1;18,7;18,8;18,3;17,7;-10,2;26,9;1308
2021-07-04 02:00:00;16,7;100677;94;0,0111;0,02;1,0;144;1,7;-0,78;0,57;0;0;0;38,3;42,4;38,5;39,1;18,6;18,7;18,3;17,7;-10,1;26,9;1280
2021-07-04 03:00:00;16,5;100665;94;0,011;0,02;0,3;200;0,6;-0,21;-0,05;0;0;0;38,2;42,4;38,6;39,1;18,5;18,6;18,3;17,7;-10,1;27,2;1299
2021-07-04 04:00:00;16,7;100665;94;0,0111;0,0;0,6;224;1,0;-0,32;-0,34;14;0;0;38,2;42,4;38,6;39,1;18,5;18,6;18,3;17,7;-10,1;27,1;1269
2021-07-04 05:00:00;17,4;100635;98;0,0122;0,0;0,5;218;1,0;-0,4;-0,29;162;0;0;38,2;42,5;38,6;39,1;18,4;18,6;18,3;17,7;-10,1;27,2;1324
2021-07-04 06:00:00;17,9;100627;95;0,0121;0,0;1,6;204;2,7;-1,49;-0,69;175;0;0;38,2;42,5;38,6;39,1;18,5;18,6;18,3;17,7;-10,1;27,3;1271
2021-07-04 07:00:00;18,4;100582;92;0,0121;0,0;1,0;202;2,0;-0,86;-0,34;264;0;0;38,2;42,5;38,6;39,1;18,5;18,6;18,3;17,8;-10,1;27,3;1269
2021-07-04 08:00:00;18,8;100560;88;0,0119;0,0;1,4;189;2,6;-1,36;-0,28;280;0;0;38,1;42,4;38,6;39,1;18,6;18,6;18,3;17,8;-10,1;27,5;1276
2021-07-04 09:00:00;20,2;100520;83;0,0122;0,0;1,1;215;2,5;-0,92;-0,67;635;0;0;38,1;42,4;38,6;39,1;18,8;18,6;18,3;17,8;-10,1;27,7;1360
2021-07-04 10:00:00;20,9;100463;78;0,012;0,0;1,2;252;2,7;-0,38;-1,17;590;0;0;37,9;42,4;38,6;39,1;19,2;18,6;18,3;17,8;-10,1;27,4;1323
2021-07-04 11:00:00;22,2;100372;71;0,0119;0,0;1,1;258;3,0;-0,23;-1,1;734;0;0;37,8;42,4;38,6;39,1;19,6;18,7;18,3;17,8;-10,1;27,0;1322
2021-07-04 12:00:00;22,5;100322;65;0,0111;0,0;1,2;201;2,7;-1,1;-0,43;570;0;0;37,6;42,3;38,6;39,1;20,2;18,9;18,3;17,8;-10,1;27,1;1421
2021-07-04 13:00:00;21,5;100328;70;0,0113;0,0;1,7;218;3,2;-1,27;-0,97;187;1;1;37,5;42,3;38,6;39,1;20,5;19,2;18,3;17,7;-10,1;26,9;1343
2021-07-04 14:00:00;16,8;100403;87;0,0104;2,51;4,3;207;9,3;-3,8;-1,99;50;10;6;37,5;42,3;38,5;39,0;20,5;19,4;18,3;17,8;-10,1;27,1;1309
2021-07-04 15:00:00;15,3;100425;93;0,0101;0,58;1,2;222;2,4;-0,03;-0,43;90;1;4;38,2;42,4;38,6;39,0;20,2;19,5;18,4;17,8;-10,1;27,1;1346
2021-07-04 16:00:00;15,7;100365;96;0,0107;0,08;1,6;131;3,0;-0,92;0,14;137;0;0;38,6;42,5;38,6;39,0;20,0;19,5;18,5;17,8;-10,1;27,1;1335
2021-07-04 17:00:00;15,8;100385;95;0,0106;0,0;3,0;200;4,7;-2,76;-1,08;148;0;0;38,8;42,6;38,6;39,0;19,8;19,5;18,5;17,8;-10,1;27,0;1377
2021-07-04 18:00:00;15,9;100423;93;0,0104;0,0;2,6;202;4,3;-2,4;-1,0;87;0;0;38,8;42,7;38,6;39,0;19,7;19,4;18,5;17,8;-10,1;27,1;1309
2021-07-04 19:00:00;15,6;100445;92;0,0102;0,0;1,9;185;3,3;-1,92;-0,18;22;0;0;38,7;42,7;38,7;39,0;19,5;19,4;18,6;17,8;-10,0;26,8;1367
2021-07-04 20:00:00;15,8;100478;93;0,0103;0,0;1,5;193;2,4;-1,43;-0,34;0;0;0;38,7;42,7;38,7;39,0;19,4;19,3;18,6;17,8;-10,0;26,6;1336
2021-07-04 21:00:00;15,1;100488;94;0,01;0,0;1,3;172;2,2;-1,26;0,16;0;0;0;38,7;42,7;38,7;39,0;19,2;19,2;18,6;17,8;-10,0;26,6;1388
2021-07-04 22:00:00;14,5;100503;93;0,0095;0,0;1,5;164;2,2;-1,43;0,4;0;0;0;38,6;42,7;38,7;39,0;19,0;19,2;18,6;17,8;-10,0;26,5;1389
2021-07-04 23:00:00;14,0;100475;94;0,0093;0,0;1,4;163;2,1;-1,33;0,4;0;0;0;38,6;42,7;38,7;39,0;18,8;19,1;18,6;17,8;-10,0;26,5;1320
2021-07-05 00:00:00;13,7;100435;93;0,0091;0,04;1,7;166;2,8;-1,61;0,41;0;0;0;38,5;42,7;38,7;39,1;18,7;19,0;18,6;17,9;-10,0;26,4;1418
2021-07-05 01:00:00;14,0;100385;94;0,0093;0,06;2,0;166;3,2;-1,97;0,47;0;0;0;38,5;42,7;38,7;39,1;18,5;18,8;18,6;17,9;-10,0;26,5;1277
2021-07-05 02:00:00;14,1;100347;94;0,0094;0,04;2,1;177;3,6;-2,05;0,1;0;0;0;38,4;42,7;38,7;39,1;18,4;18,7;18,6;17,9;-10,0;26,4;1338
2021-07-05 03:00:00;14,6;100365;94;0,0097;0,09;2,3;202;4,0;-2,01;-0,85;2;0;0;38,4;42,7;38,7;39,1;18,2;18,6;18,5;17,9;-10,0;26,3;1305
2021-07-05 04:00:00;14,2;100400;97;0,0097;2,34;2,7;253;4,8;-0,73;-2,59;6;0;0;38,5;42,7;38,7;39,1;18,1;18,6;18,5;17,9;-10,0;26,4;1343
2021-07-05 05:00:00;13,1;100390;95;0,0089;0,15;1,9;224;3,2;-1,22;-1,24;29;0;0;39,2;42,8;38,8;39,1;18,0;18,5;18,5;17,9;-10,0;26,3;1345
2021-07-05 06:00:00;13,4;100390;96;0,0092;0,0;2,0;177;3,0;-2,03;0,08;70;0;0;39,5;42,9;38,8;39,1;17,9;18,4;18,4;17,9;-10,0;26,6;1369
2021-07-05 07:00:00;14,1;100400;98;0,0097;0,0;2,7;190;4,4;-2,66;-0,52;232;0;0;39,6;43,0;38,8;39,1;17,8;18,3;18,4;17,9;-10,0;26,4;1378
2021-07-05 08:00:00;15,4;100428;94;0,0102;0,0;3,1;208;5,6;-2,74;-1,45;365;0;0;39,5;43,0;38,9;39,1;17,9;18,2;18,4;17,9;-9,9;26,4;1258
2021-07-05 09:00:00;16,6;100435;86;0,0102;0,0;3,1;213;5,6;-2,6;-1,7;459;0;0;39,4;43,0;38,9;39,1;18,0;18,2;18,3;17,9;-9,9;26,4;1396
2021-07-05 10:00:00;16,6;100453;83;0,0098;0,0;3,1;217;5,3;-2,42;-1,88;282;0;0;39,3;43,0;38,9;39,1;18,2;18,2;18,3;17,9;-9,9;26,4;1316
2021-07-05 11:00:00;16,3;100445;86;0,0098;0,0;2,9;194;4,8;-2,76;-0,72;396;0;0;39,2;43,0;38,9;39,1;18,3;18,2;18,2;17,9;-9,9;26,7;1340
2021-07-05 12:00:00;17,5;100410;80;0,0099;0,0;2,2;196;4,3;-2,07;-0,6;522;0;0;39,1;43,0;38,9;39,1;18,4;18,3;18,2;17,9;-9,9;26,7;1370
2021-07-05 13:00:00;17,8;100403;76;0,0096;0,0;2,2;189;4,0;-2,17;-0,34;377;0;0;38,9;42,9;38,9;39,1;18,7;18,3;18,2;17,9;-9,9;27,0;1390
2021-07-05 14:00:00;17,9;100382;76;0,0097;0,0;2,3;162;3,9;-2,11;0,69;262;0;0;38,8;42,9;38,9;39,1;18,8;18,4;18,2;17,8;-9,9;26,8;1311
2021-07-05 15:00:00;17,9;100352;78;0,0099;0,0;3,8;157;6,3;-3,48;1,44;400;0;0;38,7;42,9;38,9;39,1;18,9;18,5;18,2;17,8;-9,9;26,8;1339
2021-07-05 16:00:00;17,8;100337;80;0,0101;0,0;2,3;167;4,3;-2,28;0,52;240;0;0;38,6;42,8;38,9;39,1;19,0;18,6;18,2;17,8;-9,9;26,8;1360
2021-07-05 17:00:00;18,0;100313;76;0,0098;0,0;1,8;171;2,9;-1,82;0,27;188;0;0;38,5;42,8;38,9;39,1;19,1;18,7;18,2;17,8;-9,9;26,8;1301
2021-07-05 18:00:00;17,7;100315;78;0,0098;0,0;1,6;151;2,8;-1,42;0,76;91;0;0;38,4;42,8;38,9;39,1;19,1;18,7;18,2;17,8;-9,9;26,8;1366
2021-07-05 19:00:00;17,1;100300;82;0,01;0,0;0,8;146;1,4;-0,68;0,46;20;0;0;38,4;42,8;38,9;39,1;19,0;18,7;18,2;17,8;-9,9;27,0;1385
2021-07-05 20:00:00;16,7;100270;84;0,01;0,0;0,8;128;1,4;-0,49;0,6;0;0;0;38,3;42,8;38,9;39,1;18,9;18,7;18,3;17,8;-9,9;26,7;1360
2021-07-05 21:00:00;16,5;100247;86;0,01;0,0;0,8;142;1,4;-0,59;0,47;0;0;0;38,3;42,8;38,9;39,1;18,8;18,7;18,3;17,8;-9,9;26,4;1445
2021-07-05 22:00:00;16,6;100190;86;0,0101;0,0;1,3;144;2,1;-1,05;0,71;0;0;0;38,3;42,8;38,9;39,1;18,6;18,7;18,3;17,8;-9,9;26,8;1326
2021-07-05 23:00:00;16,8;100142;88;0,0105;0,0;1,7;166;2,7;-1,66;0,39;0;0;0;38,2;42,7;38,9;39,1;18,6;18,6;18,3;17,8;-9,9;26,4;1377
2021-07-06 00:00:00;17,3;100100;87;0,0108;0,0;2,4;169;4,1;-2,34;0,43;0;0;0;38,2;42,7;38,8;39,1;18,5;18,6;18,3;17,8;-9,9;26,3;1354
2021-07-06 01:00:00;17,8;100037;85;0,0108;0,0;2,5;176;4,4;-2,46;0,17;0;0;0;38,2;42,7;38,8;39,1;18,4;18,5;18,3;17,7;-9,9;26,4;1392
2021-07-06 02:00:00;16,9;100008;89;0,0107;0,92;1,5;163;2,6;-1,35;0,3;0;0;0;38,2;42,7;38,8;39,1;18,4;18,5;18,3;17,8;-9,9;26,6;1372
2021-07-06 03:00:00;16,8;99888;89;0,0107;0,0;2,3;136;4,6;-1,69;1,57;1;0;0;38,3;42,8;38,8;39,1;18,3;18,4;18,2;17,8;-9,9;26,6;1354
2021-07-06 04:00:00;17,5;99792;88;0,011;0,0;3,3;157;5,6;-3,0;1,21;20;0;0;38,3;42,8;38,9;39,1;18,2;18,4;18,2;17,7;-9,9;26,5;1398
2021-07-06 05:00:00;18,1;99840;85;0,011;0,0;4,1;168;7,4;-4,04;0,81;58;0;0;38,4;42,8;38,9;39,1;18,2;18,4;18,2;17,7;-9,9;26,4;1412
2021-07-06 06:00:00;18,3;99835;83;0,011;0,0;3,8;170;6,6;-3,7;0,67;56;0;0;38,3;42,8;38,9;39,1;18,2;18,3;18,2;17,7;-9,9;26,3;1360
2021-07-06 07:00:00;18,6;99827;83;0,0111;0,0;3,2;168;5,6;-3,14;0,62;110;0;0;38,3;42,8;38,9;39,1;18,2;18,3;18,2;17,7;-9,9;26,3;1522
2021-07-06 08:00:00;19,1;99852;78;0,0108;0,0;5,5;189;10,3;-5,46;-0,92;230;0;0;38,3;42,8;38,9;39,1;18,2;18,3;18,2;17,7;-9,9;26,5;1456
2021-07-06 09:00:00;19,2;99873;74;0,0102;0,0;6,8;195;11,9;-6,52;-1,75;436;0;0;38,2;42,7;38,9;39,1;18,2;18,2;18,1;17,7;-9,9;26,2;1335
2021-07-06 10:00:00;20,3;99905;68;0,0101;0,0;7,3;196;12,2;-6,98;-2,03;654;0;0;38,0;42,7;38,8;39,1;18,3;18,3;18,1;17,7;-9,9;26,3;1501
2021-07-06 11:00:00;21,2;99948;60;0,0093;0,0;7,4;201;12,5;-6,91;-2,73;766;0;0;37,8;42,6;38,8;39,0;18,5;18,3;18,1;17,7;-9,9;26,0;1457
2021-07-06 12:00:00;21,2;100010;57;0,009;0,0;7,0;209;12,4;-6,08;-3,41;701;0;0;37,6;42,6;38,8;39,0;18,8;18,4;18,1;17,7;-9,9;25,9;1360
2021-07-06 13:00:00;20,7;100110;57;0,0087;0,0;6,6;212;11,4;-5,5;-3,61;521;0;0;37,4;42,5;38,8;39,0;19,0;18,5;18,1;17,7;-10,0;25,8;1394
2021-07-06 14:00:00;19,9;100232;58;0,0083;0,0;6,5;210;12,2;-5,64;-3,3;348;0;0;37,2;42,4;38,7;39,0;19,1;18,6;18,1;17,7;-10,0;25,8;1327
2021-07-06 15:00:00;20,1;100265;57;0,0084;0,0;6,7;204;11,4;-6,08;-2,72;469;0;0;37,0;42,4;38,7;39,0;19,1;18,6;18,1;17,7;-10,0;25,8;1400
2021-07-06 16:00:00;19,6;100303;58;0,0083;0,0;5,3;215;9,1;-4,31;-3,07;222;0;0;36,9;42,3;38,7;39,0;19,0;18,7;18,1;17,7;-10,0;25,4;1403
2021-07-06 17:00:00;17,5;100420;67;0,0083;0,0;4,5;241;8,9;-1,95;-3,87;103;0;0;36,8;42,3;38,7;39,0;18,9;18,7;18,2;17,7;-10,0;25,4;1368
2021-07-06 18:00:00;17,3;100485;70;0,0086;0,0;3,6;210;6,8;-3,04;-1,87;127;0;0;36,7;42,2;38,7;39,0;18,7;18,6;18,2;17,7;-10,0;25,6;1352
2021-07-06 19:00:00;16,5;100538;74;0,0086;0,0;2,7;197;4,9;-2,56;-0,81;33;0;0;36,7;42,2;38,6;39,0;18,6;18,6;18,2;17,7;-10,0;25,2;1311
2021-07-06 20:00:00;14,9;100610;79;0,0083;0,0;2,2;194;3,5;-2,11;-0,54;0;0;0;36,7;42,2;38,6;39,0;18,4;18,6;18,2;17,7;-10,0;25,5;1423
2021-07-06 21:00:00;14,4;100660;81;0,0082;0,0;2,1;194;3,4;-2,03;-0,52;0;0;0;36,7;42,2;38,6;39,0;18,2;18,5;18,2;17,7;-10,1;25,7;1370
2021-07-06 22:00:00;13,8;100680;83;0,0081;0,0;1,5;188;2,5;-1,5;-0,23;0;0;0;36,6;42,2;38,6;39,0;18,0;18,4;18,2;17,7;-10,1;25,6;1391
2021-07-06 23:00:00;12,8;100737;86;0,0079;0,0;0,9;183;1,3;-0,86;-0,05;0;0;0;36,6;42,1;38,6;39,0;17,8;18,3;18,2;17,7;-10,1;26,0;1359
2021-07-07 00:00:00;12,7;100765;87;0,0079;0,0;1,2;168;2,1;-1,16;0,27;0;0;0;36,6;42,1;38,6;38,9;17,6;18,2;18,2;17,7;-10,1;26,2;1311
2021-07-07 01:00:00;12,4;100765;89;0,008;0,0;1,5;165;2,4;-1,46;0,41;0;0;0;36,6;42,1;38,6;38,9;17,4;18,1;18,1;17,7;-10,1;26,0;1322
2021-07-07 02:00:00;12,5;100762;88;0,0079;0,0;1,2;175;2,0;-1,12;0,14;0;0;0;36,5;42,1;38,6;38,9;17,3;17,9;18,1;17,7;-10,1;26,0;1332
2021-07-07 03:00:00;13,4;100770;88;0,0084;0,0;1,6;170;2,7;-1,6;0,3;2;0;0;36,5;42,1;38,6;38,9;17,2;17,8;18,1;17,7;-10,1;25,9;1377
2021-07-07 04:00:00;13,2;100803;88;0,0083;0,0;1,6;171;2,4;-1,6;0,24;60;0;0;36,5;42,1;38,6;38,9;17,1;17,7;18,0;17,7;-10,1;25,7;1324
2021-07-07 05:00:00;14,1;100815;87;0,0087;0,0;2,2;169;3,4;-2,14;0,4;82;0;0;36,5;42,1;38,6;38,9;17,0;17,6;18,0;17,7;-10,1;25,8;1261
2021-07-07 06:00:00;15,2;100867;86;0,0092;0,0;2,4;176;3,9;-2,38;0,16;165;0;0;36,5;42,1;38,6;38,9;17,0;17,6;17,9;17,6;-10,1;25,9;1402
2021-07-07 07:00:00;17,2;100887;81;0,0099;0,0;2,7;174;4,5;-2,72;0,27;382;0;0;36,4;42,0;38,6;38,9;17,0;17,6;17,9;17,6;-10,2;25,7;1276
2021-07-07 08:00:00;19,1;100897;74;0,0101;0,0;3,2;193;5,6;-3,14;-0,74;586;0;0;36,4;42,0;38,6;38,9;17,2;17,5;17,8;17,6;-10,2;25,4;1283
2021-07-07 09:00:00;20,4;100918;66;0,0098;0,0;4,0;184;7,6;-4,0;-0,29;721;0;0;36,2;42,0;38,5;38,9;17,5;17,5;17,8;17,6;-10,2;25,5;1273
2021-07-07 10:00:00;20,6;100960;62;0,0092;0,0;4,3;192;7,5;-4,19;-0,93;614;0;0;36,1;41,9;38,5;38,9;17,9;17,6;17,7;17,6;-10,2;25,4;1249
2021-07-07 11:00:00;20,4;101010;62;0,0092;0,0;3,6;202;6,0;-3,31;-1,37;393;0;0;35,9;41,8;38,5;38,9;18,2;17,7;17,7;17,6;-10,3;25,4;1253
2021-07-07 12:00:00;20,7;101048;62;0,0094;0,0;3,1;206;5,3;-2,8;-1,42;439;0;0;35,8;41,8;38,5;38,8;18,5;17,8;17,7;17,6;-10,3;25,5;1318
2021-07-07 13:00:00;21,2;101080;60;0,0094;0,0;3,4;203;6,0;-3,09;-1,2;558;0;0;35,6;41,7;38,5;38,8;18,7;18,0;17,7;17,5;-10,3;25,4;1285
2021-07-07 14:00:00;21,5;101100;60;0,0096;0,0;2,8;224;5,0;-2,0;-1,94;496;0;0;35,5;41,6;38,5;38,8;19,0;18,1;17,7;17,5;-10,3;25,2;1280
2021-07-07 15:00:00;22,1;101090;60;0,0099;0,0;2,5;224;4,6;-1,76;-1,67;567;0;0;35,3;41,5;38,4;38,8;19,1;18,3;17,7;17,5;-10,4;25,0;1344
2021-07-07 16:00:00;22,1;101108;57;0,0094;0,0;2,8;226;5,2;-1,95;-2,01;420;0;0;35,1;41,5;38,4;38,8;19,4;18,5;17,8;17,5;-10,4;25,1;1281
2021-07-07 17:00:00;21,1;101158;61;0,0094;0,0;1,5;213;3,0;-1,22;-0,91;151;0;0;35,0;41,4;38,4;38,8;19,4;18,6;17,8;17,5;-10,4;25,0;1251
2021-07-07 18:00:00;20,6;101197;65;0,0098;0,0;0,7;175;1,3;-0,62;-0,09;74;0;0;34,9;41,4;38,4;38,8;19,4;18,7;17,9;17,5;-10,4;24,5;1327
2021-07-07 19:00:00;20,5;101213;68;0,01;0,0;0,6;143;1,0;-0,48;0,4;39;0;0;34,9;41,4;38,4;38,8;19,3;18,7;17,9;17,5;-10,5;24,6;1332
2021-07-07 20:00:00;18,8;101273;71;0,0095;0,0;0,7;138;1,0;-0,5;0,5;2;0;0;34,9;41,3;38,4;38,8;19,2;18,7;18,0;17,5;-10,5;24,3;1323
2021-07-07 21:00:00;17,4;101318;74;0,009;0,0;1,0;146;1,5;-0,8;0,6;0;0;0;34,8;41,3;38,3;38,8;19,0;18,7;18,0;17,5;-10,5;24,0;1305
2021-07-07 22:00:00;16,2;101360;80;0,0091;0,0;0,6;170;0,9;-0,48;0,13;0;0;0;34,7;41,3;38,3;38,7;18,7;18,7;18,0;17,5;-10,5;24,0;1306
2021-07-07 23:00:00;15,3;101400;82;0,0088;0,0;0,5;132;0,9;-0,32;0,28;0;0;0;34,7;41,3;38,3;38,7;18,5;18,6;18,1;17,5;-10,5;24,0;1274
2021-07-08 00:00:00;14,3;101410;85;0,0086;0,0;0,6;155;1,0;-0,56;0,29;0;0;0;34,7;41,3;38,3;38,7;18,3;18,5;18,1;17,5;-10,5;24,0;1288
2021-07-08 01:00:00;13,9;101425;87;0,0085;0,0;0,5;176;1,1;-0,45;0,11;0;0;0;34,7;41,3;38,3;38,7;18,0;18,4;18,1;17,5;-10,5;24,1;1336
2021-07-08 02:00:00;13,9;101408;87;0,0085;0,0;0,4;162;0,8;-0,34;0,12;0;0;0;34,8;41,2;38,3;38,7;17,8;18,3;18,1;17,5;-10,5;24,1;1310
2021-07-08 03:00:00;14,0;101413;87;0,0086;0,0;0,8;152;1,1;-0,67;0,35;2;0;0;34,8;41,2;38,3;38,7;17,6;18,2;18,1;17,5;-10,6;23,9;1309
2021-07-08 04:00:00;14,1;101433;88;0,0087;0,0;0,7;171;1,1;-0,67;0,1;22;0;0;34,8;41,2;38,3;38,7;17,5;18,0;18,1;17,5;-10,6;24,0;1293
2021-07-08 05:00:00;14,8;101460;88;0,0091;0,0;0,8;172;1,2;-0,8;0,11;83;0;0;34,8;41,2;38,3;38,7;17,4;17,9;18,0;17,5;-10,6;23,9;1357
2021-07-08 06:00:00;16,8;101455;87;0,0103;0,0;1,2;214;2,0;-0,96;-0,62;216;0;0;34,8;41,2;38,3;38,7;17,4;17,9;18,0;17,5;-10,6;23,7;1315